Temp
13 14 14 14 14 14 14 15 15 14 14 14 14 14 13 13 13 13 13 14 14 14 14 13 14 14 14 13 14 14 15 16 16 16 14 14 13 12 12 12 12 12 11 10 12
13 14 14 14 14 14 14 15 15 15 14 14 14 14 14 13 13 13 13 14 14 14 14 14 13 13 13 14 15 14 17 17 16 16 15 14 14 13 13 12 11 10 11 10 10
13 13 14 14 14 14 14 14 15 15 15 14 14 14 14 13 13 14 13 14 14 14 14 14 12 12 14 15 15 14 16 16 16 15 15 14 14 13 14 13 12 11 10 9 9
13 13 13 14 14 14 14 14 14 15 15 15 14 14 14 13 14 14 14 14 14 14 14 14 13 13 14 14 16 16 16 16 15 14 15 14 13 14 13 13 12 11 10 10 10
13 13 13 13 14 14 14 14 14 15 15 15 14 14 14 14 14 14 14 14 14 14 14 13 13 14 14 15 15 16 16 15 15 15 15 14 14 13 13 13 12 11 11 11 11
12 13 13 13 13 13 14 14 14 14 15 15 14 14 14 14 14 14 14 14 14 14 12 12 14 14 15 15 15 16 16 15 15 15 14 14 13 14 12 12 12 11 11 11 11
12 13 13 13 13 13 13 14 14 14 14 14 14 14 14 14 14 14 14 14 14 13 13 13 13 14 15 16 15 15 16 15 15 15 14 15 14 14 13 12 12 12 12 11 11
12 12 13 13 13 13 13 13 14 14 14 14 14 14 14 14 14 14 14 14 13 12 14 13 14 14 15 15 15 15 16 15 15 15 14 14 12 14 13 13 13 12 12 11 11
12 12 12 13 13 13 13 13 13 13 13 14 14 14 13 15 14 14 14 14 13 13 13 14 14 15 15 16 16 15 14 12 12 15 14 14 11 13 14 13 13 13 12 11 10
12 12 12 12 13 12 13 13 12 13 13 13 13 13 14 15 14 14 14 13 13 13 13 14 14 16 16 16 13 13 15 15 15 13 15 15 15 12 13 13 13 12 12 11 11
12 12 12 12 12 12 12 12 12 12 13 13 13 13 13 14 14 14 14 13 13 13 14 15 16 17 16 16 15 16 16 15 15 15 15 14 15 13 11 12 13 13 12 12 11
11 11 12 12 12 12 12 12 11 12 12 13 13 12 13 14 14 13 12 13 13 14 15 16 16 16 15 15 16 17 16 16 16 15 14 15 15 15 13 13 13 13 13 13 12
11 11 11 11 12 12 12 12 12 12 12 13 13 13 13 14 14 14 13 13 14 15 16 17 18 16 16 16 17 16 16 15 17 15 14 15 14 15 15 14 14 13 13 13 12
11 11 11 11 11 12 12 12 12 12 12 14 13 13 12 14 14 14 13 14 15 15 16 17 18 16 16 17 16 16 15 16 16 15 15 15 17 15 15 16 15 14 13 13 12
11 11 11 11 11 11 12 12 12 12 17 15 14 13 13 13 15 14 14 14 15 16 17 17 18 17 17 18 16 15 15 16 16 16 17 16 15 17 16 17 16 15 15 14 12
10 11 11 11 11 11 12 11 12 12 17 15 13 13 14 13 15 15 14 14 15 16 17 17 18 17 17 17 16 15 16 16 17 16 16 14 17 15 14 18 17 16 15 15 13
10 11 11 11 11 11 11 11 11 15 16 15 14 14 14 14 15 15 14 14 15 15 17 17 17 17 17 17 16 16 17 17 15 12 9 14 18 18 18 18 18 17 16 15 14
10 10 11 11 11 11 11 9 13 16 17 15 15 15 15 15 15 14 15 15 15 16 17 18 18 17 16 16 17 17 18 14 15 19 12 15 19 18 18 17 17 17 16 15 14
10 10 10 10 10 11 10 11 15 16 16 15 15 16 16 16 16 16 15 16 16 16 17 18 18 18 17 16 17 17 18 17 17 19 19 14 16 18 17 17 17 17 16 15 15
9 9 8 10 10 10 9 12 15 13 13 13 16 16 17 16 16 16 16 17 17 16 17 18 19 18 17 17 17 17 16 17 15 18 17 15 14 12 18 17 17 17 16 16 15
9 8 9 9 9 9 10 12 13 12 12 13 15 16 17 17 16 17 17 17 17 17 17 17 18 18 18 16 17 16 16 17 17 18 20 21 14 16 17 18 17 17 17 16 15
9 8 8 9 8 9 11 12 12 12 11 12 13 15 16 17 17 16 17 17 16 17 17 17 17 18 18 18 17 17 18 18 18 19 17 16 18 17 17 17 17 17 17 16 15
8 8 8 8 9 11 11 11 10 11 12 12 13 13 14 16 16 17 17 15 16 16 16 16 17 18 19 18 17 17 17 18 19 17 13 8 16 17 17 17 17 17 16 15 14
7 8 7 7 8 9 12 11 11 10 11 10 12 12 13 14 15 16 16 15 15 14 15 15 17 17 19 19 19 17 17 18 18 18 17 13 18 15 17 17 17 17 16 15 14
6 7 7 9 8 9 10 11 11 11 10 10 11 12 13 14 15 15 15 13 14 13 14 14 16 17 18 18 19 19 18 18 18 18 18 18 18 19 18 17 17 16 15 15 14
6 6 5 6 6 7 8 8 10 11 10 10 10 12 12 13 14 15 14 14 13 13 13 14 15 16 17 18 18 18 19 18 18 18 18 19 19 19 18 18 17 16 15 15 14
5 5 5 5 6 7 8 9 9 9 8 8 9 11 11 11 12 12 12 13 13 13 14 15 15 16 17 17 17 18 18 18 18 18 18 18 19 18 18 17 17 17 16 15 14
Height
3168 3168 3168 3169 3168 3168 3168 3168 3168 3169 3170 3172 3174 3176 3179 3181 3182 3183 3184 3185 3186 3186 3187 3187 3187 3187 3188 3191 3189 3189 3189 3189 3190 3190 3193 3193 3193 3192 3193 3193 3194 3193 3193 3191 3189
3166 3167 3167 3167 3167 3167 3168 3168 3168 3168 3169 3171 3173 3175 3178 3180 3182 3183 3184 3185 3186 3186 3187 3188 3188 3189 3193 3194 3192 3187 3190 3190 3191 3191 3192 3194 3194 3194 3195 3194 3194 3192 3191 3192 3191
3164 3164 3165 3165 3165 3165 3166 3167 3167 3167 3168 3169 3171 3174 3177 3180 3183 3184 3184 3184 3186 3186 3187 3189 3192 3192 3192 3192 3192 3189 3190 3192 3193 3193 3194 3195 3195 3195 3196 3196 3197 3196 3195 3195 3197
3161 3162 3162 3162 3162 3163 3163 3164 3165 3166 3166 3168 3170 3173 3176 3179 3185 3181 3183 3184 3185 3187 3188 3189 3191 3193 3190 3193 3193 3189 3192 3193 3194 3194 3195 3195 3195 3196 3195 3197 3197 3198 3199 3200 3201
3159 3159 3158 3159 3159 3160 3161 3161 3163 3165 3165 3166 3168 3171 3174 3178 3180 3179 3181 3183 3185 3186 3188 3189 3192 3194 3191 3192 3193 3193 3193 3193 3194 3195 3195 3195 3195 3196 3197 3198 3198 3198 3200 3202 3203
3155 3156 3155 3155 3156 3156 3158 3159 3160 3162 3164 3165 3166 3169 3173 3177 3176 3179 3181 3183 3184 3186 3188 3191 3193 3193 3193 3193 3192 3192 3193 3193 3193 3194 3194 3195 3195 3196 3197 3198 3199 3200 3202 3203 3204
3153 3153 3153 3152 3152 3153 3154 3155 3157 3159 3161 3163 3164 3167 3170 3176 3175 3178 3180 3182 3184 3186 3192 3193 3191 3192 3193 3192 3191 3191 3191 3191 3191 3192 3193 3195 3196 3195 3196 3198 3199 3201 3203 3204 3204
3151 3151 3150 3150 3150 3149 3150 3151 3153 3155 3158 3161 3163 3165 3170 3167 3171 3175 3179 3181 3184 3188 3192 3192 3189 3192 3192 3191 3191 3190 3189 3189 3193 3193 3191 3194 3195 3197 3196 3197 3199 3201 3202 3203 3203
3147 3147 3147 3147 3147 3146 3146 3147 3149 3152 3155 3158 3161 3163 3168 3166 3169 3174 3177 3181 3184 3187 3188 3188 3189 3189 3191 3191 3191 3189 3188 3181 3185 3190 3188 3193 3189 3192 3194 3196 3197 3199 3200 3202 3202
3144 3144 3144 3144 3144 3144 3143 3144 3146 3149 3152 3155 3158 3163 3161 3164 3168 3171 3175 3181 3184 3187 3189 3188 3190 3189 3189 3189 3191 3189 3185 3185 3183 3180 3187 3190 3191 3188 3192 3194 3193 3196 3198 3200 3201
3140 3140 3141 3141 3141 3141 3142 3143 3149 3150 3149 3154 3158 3159 3158 3163 3164 3169 3173 3180 3183 3186 3187 3188 3188 3184 3186 3185 3187 3187 3186 3185 3182 3183 3187 3187 3187 3187 3176 3182 3191 3193 3194 3196 3198
3136 3137 3137 3138 3138 3139 3139 3141 3141 3143 3148 3149 3151 3155 3156 3157 3162 3167 3172 3178 3180 3183 3185 3186 3183 3180 3178 3186 3185 3185 3184 3183 3185 3181 3184 3183 3183 3183 3182 3185 3187 3189 3190 3195 3197
3134 3134 3134 3135 3136 3137 3138 3138 3140 3143 3146 3148 3148 3150 3153 3157 3161 3164 3168 3174 3178 3180 3181 3179 3179 3178 3178 3182 3183 3183 3182 3181 3182 3180 3180 3180 3178 3177 3179 3181 3184 3185 3189 3190 3194
3130 3131 3131 3132 3136 3135 3136 3137 3140 3143 3147 3145 3144 3146 3151 3154 3158 3163 3165 3173 3175 3177 3177 3178 3178 3179 3182 3180 3183 3180 3182 3181 3178 3179 3177 3177 3172 3170 3170 3174 3177 3183 3180 3187 3189
3127 3127 3128 3129 3132 3133 3135 3136 3140 3144 3139 3140 3142 3143 3146 3150 3156 3158 3162 3169 3171 3173 3175 3174 3174 3177 3176 3178 3177 3180 3177 3179 3176 3176 3173 3169 3170 3163 3160 3164 3170 3176 3179 3183 3186
3123 3124 3125 3127 3129 3131 3133 3136 3140 3146 3133 3136 3136 3137 3144 3147 3153 3156 3158 3165 3169 3170 3170 3170 3172 3174 3175 3176 3175 3177 3177 3175 3173 3172 3164 3162 3163 3160 3160 3161 3165 3171 3177 3182 3184
3120 3121 3122 3123 3126 3129 3132 3136 3143 3135 3132 3133 3133 3135 3140 3144 3149 3152 3154 3157 3161 3166 3165 3167 3169 3171 3173 3174 3176 3177 3174 3173 3173 3173 3173 3161 3158 3154 3157 3159 3162 3166 3172 3178 3182
3117 3118 3119 3121 3123 3127 3130 3137 3135 3127 3128 3129 3132 3135 3137 3141 3145 3148 3151 3154 3158 3161 3160 3160 3165 3166 3169 3172 3171 3172 3171 3176 3174 3160 3159 3159 3151 3153 3155 3156 3159 3163 3169 3175 3180
3115 3116 3117 3119 3121 3125 3129 3133 3128 3126 3127 3130 3131 3132 3134 3137 3141 3144 3146 3148 3151 3155 3157 3155 3157 3159 3165 3169 3170 3168 3167 3170 3165 3156 3155 3164 3150 3152 3154 3156 3158 3162 3167 3173 3177
3113 3115 3116 3117 3119 3122 3127 3125 3126 3125 3125 3128 3127 3128 3129 3132 3136 3138 3140 3143 3146 3150 3154 3154 3153 3155 3160 3165 3165 3166 3170 3167 3165 3158 3159 3159 3156 3161 3154 3156 3158 3161 3165 3170 3175
3112 3115 3114 3115 3117 3120 3122 3123 3124 3123 3123 3127 3126 3125 3125 3127 3131 3133 3136 3139 3142 3145 3150 3152 3153 3155 3156 3159 3163 3165 3165 3165 3164 3158 3151 3141 3158 3148 3151 3155 3156 3160 3164 3168 3173
3110 3116 3113 3114 3117 3118 3120 3122 3119 3122 3121 3123 3123 3123 3124 3124 3126 3130 3132 3134 3137 3141 3143 3149 3151 3149 3151 3153 3158 3158 3157 3158 3156 3151 3152 3152 3149 3150 3150 3152 3154 3158 3163 3167 3171
3108 3113 3108 3111 3115 3116 3117 3117 3117 3119 3120 3121 3122 3122 3123 3123 3125 3126 3128 3128 3132 3139 3142 3146 3147 3146 3146 3150 3151 3153 3154 3152 3151 3150 3165 3168 3155 3149 3150 3150 3153 3157 3162 3166 3170
3105 3110 3109 3106 3109 3111 3112 3113 3114 3112 3115 3115 3118 3118 3121 3122 3124 3124 3126 3126 3130 3136 3138 3141 3141 3142 3139 3140 3143 3146 3150 3149 3149 3149 3152 3154 3146 3128 3148 3148 3153 3157 3162 3165 3169
3102 3106 3102 3106 3106 3107 3109 3110 3110 3111 3110 3112 3114 3116 3119 3120 3121 3123 3125 3126 3126 3130 3133 3138 3137 3138 3138 3137 3137 3139 3142 3145 3146 3147 3150 3151 3150 3148 3148 3149 3154 3158 3161 3164 3167
3097 3097 3098 3099 3100 3101 3103 3105 3107 3108 3108 3110 3111 3114 3115 3117 3117 3118 3121 3124 3125 3127 3129 3134 3134 3136 3135 3135 3136 3137 3136 3138 3141 3143 3145 3145 3146 3147 3148 3151 3153 3157 3160 3163 3166
3091 3091 3092 3096 3097 3099 3100 3101 3102 3104 3102 3104 3105 3109 3112 3112 3109 3110 3113 3118 3121 3124 3127 3129 3130 3131 3130 3132 3133 3133 3134 3136 3137 3139 3143 3143 3145 3146 3149 3151 3153 3156 3159 3162 3165
Wind_Speed
6 6 6 5 5 3 2 2 3 6 8 10 13 15 16 11 7 6 8 8 9 10 12 9 8 5 5 3 3 1 5 8 8 7 7 7 7 5 9 6 9 8 13 11 9
9 9 9 9 8 7 6 4 4 5 8 10 12 14 18 14 9 6 9 10 11 11 9 8 6 9 6 5 0 6 2 6 8 6 7 7 4 6 8 8 9 9 7 9 10
10 11 11 11 11 10 9 8 7 6 7 10 13 15 18 17 9 7 10 12 12 11 10 9 5 4 5 2 1 4 7 6 5 8 6 6 5 7 6 6 6 8 9 11 10
12 12 13 13 13 13 13 12 11 9 7 10 13 16 19 20 7 13 12 12 12 11 9 5 8 3 4 5 2 4 6 5 4 7 6 5 7 9 6 9 10 11 10 10 9
11 12 13 14 14 15 15 16 14 12 10 10 14 17 21 23 9 16 14 13 13 12 9 7 6 3 2 2 4 2 4 5 7 7 6 6 7 8 8 12 11 11 11 10 9
9 10 11 13 14 16 17 17 17 16 14 12 14 18 22 22 22 16 15 14 12 12 11 8 3 8 3 4 6 6 5 8 9 7 5 5 7 9 10 14 12 11 10 8 6
7 8 9 11 12 14 16 18 19 19 17 15 14 19 24 19 24 17 17 14 12 13 9 9 9 3 1 4 5 7 11 10 9 9 5 5 5 11 11 13 12 10 9 8 6
9 8 8 9 11 12 14 19 21 20 20 18 15 18 17 30 25 21 21 18 16 14 11 12 6 4 5 4 7 10 11 10 10 10 8 6 12 8 12 12 9 9 9 9 10
11 10 8 8 9 10 12 16 21 21 21 20 18 16 16 25 27 23 23 20 17 15 11 11 8 7 8 8 9 7 9 10 12 12 6 9 9 15 13 11 10 10 10 9 9
12 11 9 9 8 8 10 14 18 21 21 21 20 15 18 23 28 28 25 21 19 16 12 10 7 10 11 10 13 13 7 11 9 10 9 7 9 9 11 15 14 14 13 12 11
12 12 10 9 8 7 8 11 12 16 22 18 12 14 10 17 30 31 26 21 20 18 16 13 14 18 11 10 8 7 6 10 9 5 12 14 17 22 16 20 11 14 17 13 13
12 12 10 10 8 7 8 15 18 18 11 24 19 20 15 19 25 28 25 26 24 22 18 19 19 13 17 10 10 8 15 7 5 9 12 14 15 16 15 15 19 18 16 15 13
11 12 10 10 8 7 9 16 16 16 11 16 24 20 24 16 21 28 31 27 25 24 22 22 13 14 7 12 10 9 12 3 6 6 10 12 16 16 21 18 16 17 20 19 13
10 11 9 9 8 7 9 12 14 13 7 16 21 23 21 20 19 25 30 29 22 26 23 21 15 15 21 15 14 12 10 9 7 8 13 13 14 16 17 22 23 19 22 17 17
9 11 9 10 8 9 10 10 11 11 6 15 17 17 20 25 10 25 29 30 26 23 24 24 21 16 19 13 14 12 13 11 9 13 14 18 10 10 25 22 21 20 24 23 17
9 10 9 10 10 9 9 10 12 8 7 10 14 21 23 24 18 17 28 32 25 22 24 23 19 18 18 15 11 13 8 12 12 12 18 18 14 10 9 12 17 20 19 20 22
9 9 9 11 13 10 11 14 7 14 8 10 12 20 25 25 23 23 29 36 33 29 29 24 22 18 15 13 9 12 15 9 2 2 6 22 13 8 1 8 13 19 21 21 22
8 8 9 11 12 12 15 10 12 7 11 6 9 17 24 25 27 22 26 34 34 30 25 29 23 22 17 22 14 15 15 6 9 6 13 20 6 6 4 8 12 15 21 19 22
7 7 8 11 13 15 17 15 11 10 8 8 10 15 22 26 25 24 28 32 32 34 31 26 27 21 23 21 20 13 16 17 27 23 7 9 25 4 2 10 13 16 19 20 20
6 6 8 10 14 16 14 21 10 10 6 10 14 14 20 26 26 27 27 28 31 32 31 26 19 23 16 17 18 24 7 8 11 9 4 14 13 12 5 9 16 18 19 20 19
6 2 10 9 14 17 18 16 14 12 11 9 14 10 18 22 26 25 26 20 25 29 30 29 22 18 21 23 23 22 26 23 22 27 10 9 8 6 6 11 18 19 18 19 19
8 6 14 12 13 14 16 15 16 12 11 10 12 13 14 16 22 27 23 26 19 23 32 30 29 26 25 24 19 26 23 22 25 14 14 31 5 7 2 13 16 18 16 18 19
10 10 18 16 12 15 16 16 16 13 13 12 12 15 13 13 16 21 23 14 18 23 21 25 28 28 25 25 20 20 27 28 24 6 5 16 15 2 6 12 14 16 18 18 18
8 4 10 17 17 15 12 18 17 16 14 17 12 14 13 16 17 15 18 16 21 18 25 22 26 28 28 25 23 19 22 27 26 19 13 38 7 14 7 10 13 17 17 18 18
7 8 15 6 16 18 18 15 18 17 17 14 16 15 15 16 19 19 20 14 20 23 24 24 25 27 27 24 19 19 18 23 27 21 22 4 5 6 4 5 13 15 16 17 17
10 13 13 17 13 12 18 19 18 16 15 15 20 16 18 17 11 17 20 17 13 17 21 24 26 23 26 27 24 22 20 18 26 23 21 17 13 6 4 3 12 15 17 17 18
12 13 14 10 11 15 15 17 19 19 17 15 14 18 18 19 24 21 21 15 12 15 17 20 23 26 23 21 21 27 27 24 23 23 20 22 15 6 3 5 13 16 17 18 17
Wind_Direction
249 245 244 243 242 226 211 227 235 221 207 197 193 192 188 183 171 155 151 157 149 132 128 125 88 125 129 88 96 137 201 94 66 96 129 113 108 110 103 101 100 115 134 159 141
254 251 246 243 243 239 227 222 235 223 214 199 194 192 190 187 182 174 161 156 150 145 148 131 111 109 87 122 77 309 333 94 61 89 126 125 118 117 112 107 112 96 112 127 138
254 252 250 243 238 239 235 227 222 227 215 204 196 191 190 186 188 221 175 169 163 158 146 139 176 141 191 197 126 89 93 99 110 101 108 134 118 125 121 128 124 125 113 116 130
256 254 252 249 242 235 236 231 225 223 218 207 197 191 187 182 179 216 188 179 174 170 156 155 164 161 313 213 182 120 101 124 122 116 112 115 146 139 111 145 148 136 127 122 114
256 253 252 250 246 239 233 232 227 219 221 213 199 192 187 187 209 190 192 177 172 169 168 190 177 218 242 211 193 163 134 132 139 129 134 99 128 162 157 147 148 146 127 125 142
263 257 254 252 246 242 235 230 227 222 214 216 202 193 188 188 219 188 191 178 174 166 178 185 228 222 261 234 217 168 169 160 146 146 143 133 141 141 147 153 160 146 144 144 147
265 261 258 257 251 244 238 229 225 222 214 213 208 196 192 198 209 191 187 180 177 166 186 210 210 202 230 205 197 181 177 183 176 168 173 160 151 184 162 163 165 158 159 173 171
277 268 264 256 255 251 241 228 223 219 217 212 211 200 186 208 201 197 189 187 181 183 190 228 207 205 201 200 165 194 214 203 178 187 198 198 215 179 167 169 179 181 184 187 193
277 274 271 269 256 253 246 231 219 218 214 211 210 205 208 206 200 196 193 192 188 189 200 197 198 223 215 201 211 234 222 254 225 203 217 210 236 175 176 175 183 193 197 207 213
274 271 267 265 260 251 242 229 217 216 213 210 212 205 217 204 202 198 193 191 195 197 209 212 214 220 217 221 202 243 277 292 253 230 224 244 228 201 185 200 199 194 205 202 216
275 268 263 261 261 250 235 213 214 226 216 200 229 197 190 185 201 200 196 190 196 204 208 217 219 220 224 210 223 221 282 274 235 210 222 233 254 256 233 192 193 212 203 205 209
271 267 259 256 259 246 220 195 208 205 212 212 198 203 186 208 204 197 193 194 196 207 207 213 229 228 209 229 221 242 263 328 265 236 247 250 260 250 256 236 226 211 222 205 210
264 261 252 249 246 239 215 212 205 205 200 224 218 216 216 215 201 200 196 194 205 208 210 224 224 212 194 205 224 242 270 170 299 246 264 255 269 262 236 220 218 225 217 206 206
262 256 244 237 232 223 216 210 206 203 213 216 210 216 208 204 204 206 204 199 209 212 216 223 224 223 251 232 242 228 245 281 267 259 241 228 277 257 229 220 223 213 231 215 208
265 254 240 226 215 204 208 200 191 171 250 168 185 199 198 199 208 197 204 200 211 212 217 224 227 227 228 231 215 266 270 271 263 264 265 219 249 270 206 206 211 217 218 209 211
267 252 238 223 214 207 192 177 168 196 244 183 204 200 193 197 201 204 201 200 210 224 222 228 226 231 231 251 262 259 260 264 268 275 252 272 228 27 168 200 203 208 208 208 204
262 244 230 217 210 196 176 158 185 235 174 202 207 194 195 199 199 198 196 199 208 214 222 219 222 223 229 219 232 239 250 272 129 345 20 243 246 179 177 190 197 202 200 198 201
255 234 223 213 202 187 171 173 235 221 220 181 187 198 200 198 201 206 201 203 211 214 216 217 221 218 220 228 229 231 244 178 272 279 223 238 227 216 195 185 180 193 194 191 194
246 223 217 209 197 186 174 206 222 243 214 204 196 201 202 202 204 207 209 212 216 211 222 216 229 220 224 226 231 238 230 253 254 279 327 342 241 78 125 175 174 180 183 185 187
238 220 229 205 195 188 200 221 239 231 209 223 218 210 203 203 203 206 211 219 218 218 217 229 260 218 212 221 229 238 243 272 313 304 23 275 354 356 337 195 181 180 183 185 193
226 166 235 210 194 195 214 222 238 256 226 221 224 237 222 205 212 217 217 219 217 218 220 225 235 230 218 214 228 227 244 248 241 254 267 279 72 201 300 206 187 183 184 196 196
205 198 248 212 200 218 225 231 234 225 234 230 222 220 229 225 213 219 218 220 218 213 213 220 229 237 240 222 234 239 244 230 238 257 303 308 117 20 316 176 177 185 188 190 195
197 216 250 217 211 224 231 237 237 224 224 225 228 225 227 224 221 218 219 205 210 207 215 217 224 245 229 228 227 239 237 246 251 227 40 280 286 214 119 151 170 176 179 183 184
213 241 241 226 219 236 236 244 238 235 209 219 215 226 227 223 218 217 216 223 218 214 218 215 224 226 240 231 220 216 237 230 242 239 249 222 243 209 79 137 164 175 180 184 184
214 225 208 202 237 240 234 234 231 232 228 233 230 224 224 225 220 224 217 224 212 214 214 212 227 233 239 248 249 235 228 228 225 234 242 256 285 335 64 143 178 189 188 186 187
222 227 231 230 249 235 230 232 235 227 227 235 229 226 222 215 250 229 213 217 213 221 216 220 234 239 245 238 243 243 245 225 228 237 248 267 279 290 278 223 195 196 192 192 192
259 253 243 239 245 243 237 244 234 226 234 226 211 226 226 225 221 196 188 193 208 204 213 217 225 228 237 234 239 241 237 237 240 231 229 251 247 224 277 217 203 199 200 199 192